Hourly Data Report for October 18, 2014

All times are specified in Local Standard Time (LST). Add 1 hour to adjust for Daylight Saving Time where and when it is observed.

PENTICTON A
BRITISH COLUMBIA

49°27'45.000" N
119°36'08.000" W
344.40 m
1126146
71889
YYF

Download Data

Hourly Data (October 2014)
Hourly Data Report for October 18, 2014
Temp Definition
°C
Dew Point Temp Definition
°C
Rel Hum Definition
%
Wind Dir Definition
10's deg

Wind Spd Definition
km/h
Visibility Definition
km
Stn Press Definition
kPa
Hmdx Definition


Wind Chill Definition


Weather Definition


TIME
00:00 Legend Double Dagger 13.4 7.2 66 19 37 24.1 97.08     LegendNANA
01:00 Legend Double Dagger 13.2 7.5 68 19 36 24.1 97.05     Mostly Cloudy
02:00 Legend Double Dagger 13.3 7.6 68 18 37 24.1 97.06     LegendNANA
03:00 Legend Double Dagger 13.2 7.9 70 17 16 24.1 97.12     LegendNANA
04:00 Legend Double Dagger 13.1 8.2 72 17 28 24.1 97.18     Mostly Cloudy
05:00 Legend Double Dagger 12.9 8.0 72 19 28 24.1 97.19     LegendNANA
06:00 Legend Double Dagger 12.6 8.1 74 16 25 24.1 97.28     LegendNANA
07:00 Legend Double Dagger 12.4 8.1 75 17 21 24.1 97.35     Mostly Cloudy
08:00 Legend Double Dagger 12.9 8.4 74 16 25 24.1 97.41     LegendNANA
09:00 Legend Double Dagger 13.1 8.6 74 16 23 24.1 97.42     LegendNANA
10:00 Legend Double Dagger 14.4 8.8 69 16 27 24.1 97.42     Mostly Cloudy
11:00 Legend Double Dagger 14.8 9.2 69 16 26 24.1 97.47     LegendNANA
12:00 Legend Double Dagger 15.0 9.6 70 17 21 24.1 97.43     LegendNANA
13:00 Legend Double Dagger 15.3 8.8 65 17 25 24.1 97.43     Mostly Cloudy
14:00 Legend Double Dagger 16.0 9.3 64 16 22 24.1 97.45     LegendNANA
15:00 Legend Double Dagger 14.8 9.4 70 17 21 24.1 97.43     LegendNANA
16:00 Legend Double Dagger 13.9 9.4 74 18 27 24.1 97.40     Mostly Cloudy
17:00 Legend Double Dagger 13.8 9.3 74 18 26 24.1 97.37     LegendNANA
18:00 Legend Double Dagger 14.2 9.5 73 16 18 24.1 97.40     LegendNANA
19:00 Legend Double Dagger 14.2 9.3 72 16 16 24.1 97.41     Mostly Cloudy
20:00 Legend Double Dagger 14.0 9.5 74 18 16 24.1 97.42     LegendNANA
21:00 Legend Double Dagger 13.8 9.7 76 13 11 24.1 97.41     LegendNANA
22:00 Legend Double Dagger 13.9 9.4 74 14 13 24.1 97.39     Mostly Cloudy
23:00 Legend Double Dagger 13.9 9.6 75 15 19 24.1 97.34     LegendNANA

Notes on Data Quality.

Legend

  • E = Estimated
  • M = Missing
  • NA = Not Available
  • ‡ = Partner data that is not subject to review by the National Climate Archives
Date modified: